SCP
0 0 0 -0 -0 0 0 0 -0 0 -0 -0 -0 -0 -0 -0 0 0 0 0 -0 -0 -0 -0 -0 -0 -0 -0 0 0 0 0 0 0 0 0 0 0 0 0 0 0 0
0 0 0 -0 -0 0 0 -0 -0 -0 -0 -0 -0 -0 -0 -0 -0 -0 -0 -0 -0 -0 -0 -0 -0 -0 -0 0 0 0 0 0 0 0 0 0 0 0 0 0 0 0 0
0 0 0 0 0 0 0 -0 -0 -0 -0 -0 -0 -0 -0 -0 -0 -0 -0 -0 -0 -0 -0 -0 0 0 0 0 0 -0 -0 -0 -0 -0 0 0 0 0 0 0 0 0 0
0 0 0 0 0 0 0 -0 -0 -0 -0 -0 -0 -0 -0 -0 -0 -0 -0 -0 0 -0 -0 -0 0 0 0 0 0 -0 -0 0 0 -0 0 0 0 0 0 0 0 0 0
0 0 0 0 0 0 0 0 -0 -0 -0 -0 -0 -0 -0 -0 -0 -0 -0 0 0 0 0 0 0 0 0 0 -0 -0 -0 0 -0 0 0 0 0 0 0 0 0 0 0
0 0 0 0 0 0 0 0 0 -0 -0 -0 -0 -0 -0 -0 -0 0 0 0 0 0 0 0 0 0 0 0 0 -0 -0 -0 0 0 0 0 0 0 0 0 0 0 0
0 0 0 0 0 0 0 0 0 0 -0 -0 -0 -0 -0 -0 -0 0 0 0 0 0 0 0 0 0 0 0 0 0 -0 0 0 0 0 0 0 0 0 0 0 0 0
0 0 0 0 0 0 0 0 0 0 -0 -0 -0 -0 -0 -0 0 0 0 0 0 0 0 0 0 0 0 0 0 0 0 0 0 0 0 0 0 0 0 0 0 0 0
0 0 0 0 0 0 0 0 0 0 0 0 0 -0 0 0 0 0 0 0 0 0 0 0 0 0 0 0 0 0 0 0 0 0 0 0 0 0 0 0 0 0 0
0 0 0 0 0 0 0 0 0 0 0 0 0 0 0 0 0 0 0 0 0 0 0 0 0 0 0 0 0 0 0 0 0 0 0 0 0 0 0 0 0 0 0
0 0 0 0 0 0 0 0 0 0 0 0 0 0 0 0 0 0 0 0 0 0 0 0 0 0 0 0 0 0 0 0 0 0 0 0 0 0 0 0 0 0 0
0 0 0 0 0 0 0 0 0 0 0 0 0 0 0 0 0 0 0 0 0 0 0 0 0 0 0 0 0 0 0 0 0 0 0 0 0 0 0 0 0 0 0
0 0 0 0 0 0 0 0 0 0 0 0 0 0 0 0 0 0 0 0 0 0 0 0 0 0 0 0 0 0 0 0 0 0 0 0 0 0 0 0 0 0 0
0 0 0 0 0 0 0 0 0 0 0 0 0 0 0 0 0 0 0 0 0 0 0 0 0 0 0 0 0 0 0 0 0 0 0 0 0 0 0 0 0 0 0
0 0 0 0 0 0 0 0 0 0 0 0 0 0 0 0 0 0 0 0 0 0 0 0 0 0 0 0 0 0 0 0 0 0 0 0 0 0 0 0 0 0 0
0 0 0 0 0 0 0 0 0 0 0 0 0 0 0 0 0 0 0 0 0 0 0 0 0 0 0 0 0 0 0 0 0 0 0 0 0 0 0 0 0 0 0
0 0 0 0 0 0 0 0 0 0 0 0 0 0 0 0 0 0 0 0 0 0 0 0 0 0 0 0 0 0 0 0 0 0 0 0 0 0 0 0 0 0 0
0 0 0 0 0 0 0 0 0 0 0 0 0 0 0 0 0 0 0 0 0 0 0 0 0 0 0 0 0 0 0 0 0 0 0 0 0 0 0 0 0 0 0
0 0 0 0 0 0 0 0 0 0 0 0 0 0 0 0 0 0 0 0 0 0 0 0 0 0 0 0 0 0 0 0 0 0 0 0 0 0 0 0 0 0 0
0 0 0 0 0 0 0 0 0 0 0 0 0 0 0 0 0 0 0 0 0 0 0 0 0 0 0 0 0 0 0 0 0 0 0 0 0 0 0 0 0 0 0
0 0 0 0 0 0 0 0 0 0 0 0 0 0 0 0 0 0 0 0 0 0 0 0 0 0 0 0 0 0 0 0 0 0 0 0 0 0 0 0 0 0 0
0 0 0 0 0 0 0 0 0 0 0 0 0 0 0 0 0 0 0 0 0 0 0 0 0 0 0 0 0 0 0 0 0 0 0 0 0 0 0 0 0 0 0
0 0 0 0 0 0 0 0 0 0 0 0 0 0 0 0 0 0 0 0 0 0 0 0 0 0 0 0 0 0 0 0 0 0 0 0 0 0 0 0 0 0 0
0 0 0 0 0 0 0 0 0 0 0 0 0 0 0 0 0 0 0 0 0 0 0 0 0 0 0 0 0 0 0 0 0 0 0 0 0 0 0 0 0 0 0
0 0 0 0 0 0 0 0 0 0 0 0 0 0 0 0 0 0 0 0 0 0 0 0 0 0 0 0 0 0 0 0 0 0 0 0 0 0 0 0 0 0 0
0 0 0 0 0 0 0 0 0 0 0 0 0 0 0 0 0 0 0 0 0 0 0 0 0 0 0 0 0 0 0 0 0 0 0 0 0 0 0 0 0 0 0
Wind_Speed_500mb
28 28 26 27 31 30 29 28 26 22 23 26 21 20 19 17 17 15 11 10 10 12 22 24 22 21 22 23 25 30 33 33 37 38 37 23 25 25 24 25 28 29 29
35 31 27 30 33 30 24 24 22 20 18 17 15 15 15 14 15 17 23 21 21 24 26 25 25 25 24 25 27 32 35 37 32 26 27 28 24 22 20 22 23 25 24
37 33 30 30 33 32 24 19 17 17 14 13 13 11 11 12 14 14 19 29 24 21 25 25 24 24 24 26 27 30 36 31 27 20 21 26 23 23 19 17 17 17 16
38 31 29 30 32 31 29 23 17 13 11 10 9 10 11 11 12 10 18 22 29 21 11 21 22 22 23 25 26 28 29 26 22 19 16 19 20 20 19 16 15 16 14
38 30 27 28 33 31 29 25 15 9 9 10 8 9 8 10 10 11 10 17 20 22 17 18 20 20 20 21 22 23 21 21 19 15 7 10 10 14 16 15 12 12 13
35 28 25 23 26 27 25 21 15 11 11 12 10 9 8 9 11 10 8 9 13 16 14 15 16 16 16 16 17 17 17 19 13 8 8 4 7 10 15 15 13 11 11
36 33 28 26 27 27 25 23 20 13 13 11 11 8 7 6 7 7 5 4 7 9 9 9 11 11 11 12 12 11 9 8 7 2 4 8 8 11 14 16 13 12 10
33 29 25 23 21 22 24 23 20 16 13 9 4 6 5 6 7 6 6 4 2 1 3 5 5 5 4 4 5 5 3 1 2 2 7 8 9 12 13 15 13 12 11
28 28 27 22 22 21 19 19 20 20 18 16 9 6 6 5 6 6 5 6 5 5 5 7 3 4 3 2 3 3 3 5 7 7 10 12 13 14 16 16 15 14 12
33 33 34 30 26 23 22 22 21 22 22 19 16 15 8 6 5 7 7 7 8 9 9 10 9 9 9 9 10 10 10 10 13 13 13 15 16 18 21 20 18 17 15
30 28 31 34 29 26 24 23 23 23 23 22 21 20 14 10 10 10 11 13 11 12 13 12 13 15 14 15 17 18 19 17 19 20 19 21 23 22 24 26 23 21 19
38 33 28 33 33 29 27 26 24 22 22 22 22 22 20 18 16 17 14 14 14 15 17 18 18 18 18 20 22 24 23 20 21 24 24 26 29 28 28 30 30 28 26
37 37 34 32 30 30 30 29 27 25 24 24 24 24 23 24 23 21 19 20 22 22 22 24 23 22 20 20 20 22 25 26 26 28 30 31 33 33 33 34 35 34 33
43 39 42 35 29 29 28 30 28 29 29 30 27 27 26 26 26 25 25 26 25 25 23 23 25 23 25 24 24 27 28 33 35 34 35 37 38 39 38 38 40 40 39
41 40 41 39 34 32 32 31 30 30 31 29 29 29 28 28 28 29 30 29 28 28 27 26 27 28 29 30 32 34 35 34 35 36 38 38 40 41 42 42 43 44 44
31 31 31 34 37 38 37 34 33 31 29 30 28 28 30 29 31 33 33 33 31 30 31 32 32 33 34 35 37 39 41 41 42 41 42 42 41 42 42 43 43 44 46
27 26 28 29 32 39 43 41 38 36 35 35 35 32 32 33 35 35 35 36 34 33 34 36 37 37 39 39 43 43 44 45 46 46 45 45 44 44 45 45 46 46 47
34 34 33 35 35 35 38 38 40 43 44 42 41 40 39 39 40 42 40 39 38 39 39 41 40 42 43 44 46 44 45 46 47 49 50 51 52 52 52 50 51 52 51
33 33 38 42 43 42 40 38 39 39 43 47 51 51 47 45 44 45 45 41 39 43 44 42 43 45 46 45 45 46 47 49 50 52 56 60 63 63 63 60 55 53 53
39 37 40 42 45 45 45 45 46 46 47 44 47 50 53 52 49 49 48 44 40 44 45 44 45 44 46 46 46 49 52 54 59 61 62 62 63 59 52 47 42 39 41
44 50 49 44 43 45 50 52 54 57 52 46 42 38 40 45 51 50 50 47 45 47 47 47 49 50 50 48 51 57 60 61 64 64 53 34 42 37 35 36 38 38 48
47 54 59 59 60 62 58 56 58 54 52 48 44 41 38 37 42 55 51 52 50 49 49 50 51 54 55 54 53 56 56 59 59 44 42 57 35 34 38 40 40 48 50
44 45 49 50 50 52 55 57 56 55 52 50 50 45 39 37 34 37 55 48 48 50 49 49 51 49 51 51 53 48 25 29 51 62 44 48 54 53 54 53 49 50 55
54 50 55 59 59 57 52 54 56 56 54 50 47 44 41 40 34 27 30 53 45 46 47 45 45 47 46 49 50 54 56 59 53 46 53 66 62 58 53 54 58 58 58
47 50 54 55 50 52 51 51 49 53 51 45 41 36 33 32 28 24 20 25 38 41 38 36 36 40 40 43 45 48 52 56 58 62 63 64 68 69 65 68 62 58 58
33 33 38 45 47 48 50 50 53 52 50 44 38 29 29 29 31 33 31 27 28 34 37 36 36 37 38 41 43 45 48 51 56 59 63 65 68 74 72 71 69 59 52
Wind_Direction_500mb
163 161 144 132 126 125 121 127 131 119 118 120 118 114 109 103 92 88 101 103 113 93 85 87 97 101 108 102 91 89 86 76 70 58 51 64 74 76 67 64 60 57 57
161 161 147 138 134 133 136 128 130 131 124 123 119 114 110 101 93 85 84 89 97 87 79 78 85 92 96 93 94 95 85 75 66 57 48 52 62 64 64 63 65 60 50
163 161 151 147 142 141 143 139 133 140 141 131 127 125 120 107 105 99 93 102 81 65 73 74 80 87 91 89 97 100 92 78 63 63 48 48 48 52 51 52 47 49 60
167 161 153 150 148 149 152 153 153 147 153 152 139 131 126 117 114 103 101 93 110 97 59 69 78 84 86 85 97 105 108 94 71 54 43 25 25 39 42 41 39 38 37
169 162 157 157 159 159 162 163 172 178 147 136 133 135 136 141 133 127 93 102 98 112 106 86 83 85 90 90 97 108 107 92 77 70 62 22 2 14 27 31 30 32 31
164 158 156 155 161 168 169 179 179 166 142 129 142 149 148 152 155 147 130 95 94 102 109 97 96 90 89 91 95 108 105 98 106 126 69 18 348 4 13 19 21 21 19
156 159 160 161 160 168 175 178 178 172 158 150 134 141 130 142 148 151 160 128 106 100 115 120 113 100 90 86 89 101 115 124 142 156 305 1 356 356 2 4 10 12 9
160 164 167 166 166 173 181 185 188 185 182 170 175 144 122 168 185 183 176 187 177 172 164 182 139 113 105 86 84 95 113 133 307 27 303 332 349 339 342 354 1 0 357
174 178 177 176 178 179 183 189 195 197 199 200 202 227 229 218 200 216 217 207 230 263 276 274 251 224 236 277 301 303 297 294 296 313 300 315 325 333 335 341 342 344 343
187 183 187 185 187 190 192 195 200 203 208 212 217 232 234 231 234 249 269 261 249 257 271 277 272 256 265 272 278 282 280 278 284 287 289 302 310 317 320 325 326 328 326
203 212 200 195 195 198 201 205 212 215 216 222 226 238 253 252 262 264 267 265 270 271 276 280 277 270 273 277 278 280 278 275 279 282 286 291 297 300 307 309 311 313 314
205 202 219 211 202 205 209 214 220 225 229 234 237 243 256 252 257 253 255 262 268 275 284 287 288 285 284 283 279 278 278 280 281 279 285 285 288 292 295 298 299 303 304
215 219 210 212 215 208 215 217 223 229 234 238 239 241 246 247 250 259 263 275 278 281 282 280 281 284 288 289 289 285 283 287 284 283 286 285 288 291 291 292 292 293 295
215 225 229 235 219 221 225 229 224 231 233 238 241 245 243 243 246 250 261 270 273 271 274 279 280 284 286 290 291 292 300 298 295 293 289 286 287 289 290 289 289 288 288
222 225 223 229 226 224 229 236 237 236 239 239 243 243 246 251 253 255 260 263 268 271 278 279 284 287 290 292 294 298 295 294 292 292 291 288 287 287 288 287 286 286 285
216 219 217 222 226 231 237 238 243 246 251 251 252 256 255 255 256 255 257 263 268 274 281 283 285 288 287 288 287 288 294 297 298 297 296 294 291 289 288 289 287 286 285
232 233 230 222 222 228 237 241 244 247 247 253 260 261 265 267 265 265 264 265 270 272 273 274 276 279 283 284 286 289 293 296 296 296 296 294 294 294 295 294 293 290 287
243 242 244 242 235 231 232 239 244 248 251 256 257 259 262 267 270 270 268 270 270 269 271 273 277 279 280 282 286 288 288 291 294 297 297 298 298 297 296 294 293 292 289
243 251 249 250 251 251 250 248 250 250 250 255 258 261 265 266 266 268 270 270 267 267 267 271 273 275 278 282 286 288 289 290 293 295 296 297 297 297 296 296 293 290 288
239 240 245 252 258 260 261 262 263 262 261 256 254 257 262 264 264 266 268 270 268 266 266 266 263 263 269 276 280 285 287 287 288 291 291 298 296 294 295 294 294 294 295
243 241 240 240 244 249 254 256 263 268 270 265 263 262 262 261 261 258 265 268 268 264 264 260 264 265 270 276 280 283 285 287 288 294 303 300 305 299 294 295 299 299 296
258 257 252 249 251 253 252 253 259 265 268 269 266 264 268 263 261 255 252 257 256 258 260 261 263 268 272 277 279 286 289 292 298 300 298 305 300 295 294 294 292 299 299
255 243 238 240 243 249 251 255 255 256 257 258 262 265 268 275 270 257 250 250 253 257 262 260 263 267 272 275 276 274 281 282 295 300 298 296 290 288 298 300 295 294 292
253 247 245 247 254 251 246 250 251 253 257 266 264 268 271 269 266 260 256 245 249 258 265 265 266 267 269 271 276 276 278 282 287 295 293 295 295 297 298 294 295 292 291
253 253 252 253 253 250 248 244 243 246 257 261 258 256 251 258 262 269 250 240 241 257 273 275 272 274 276 276 278 282 285 288 288 288 286 294 297 301 303 303 302 296 293
257 256 256 255 250 244 242 240 238 239 245 251 253 249 234 245 249 255 253 250 243 251 264 269 271 271 274 275 275 278 280 281 285 290 290 293 295 299 302 306 306 303 298
Wind_Speed_850mb
28 28 26 27 31 30 29 28 26 22 23 26 21 20 19 17 17 15 11 10 10 12 22 24 22 21 22 23 25 30 33 33 37 38 37 23 25 25 24 25 28 29 29
35 31 27 30 33 30 24 24 22 20 18 17 15 15 15 14 15 17 23 21 21 24 26 25 25 25 24 25 27 32 35 37 32 26 27 28 24 22 20 22 23 25 24
37 33 30 30 33 32 24 19 17 17 14 13 13 11 11 12 14 14 19 29 24 21 25 25 24 24 24 26 27 30 36 31 27 20 21 26 23 23 19 17 17 17 16
38 31 29 30 32 31 29 23 17 13 11 10 9 10 11 11 12 10 18 22 29 21 11 21 22 22 23 25 26 28 29 26 22 19 16 19 20 20 19 16 15 16 14
38 30 27 28 33 31 29 25 15 9 9 10 8 9 8 10 10 11 10 17 20 22 17 18 20 20 20 21 22 23 21 21 19 15 7 10 10 14 16 15 12 12 13
35 28 25 23 26 27 25 21 15 11 11 12 10 9 8 9 11 10 8 9 13 16 14 15 16 16 16 16 17 17 17 19 13 8 8 4 7 10 15 15 13 11 11
36 33 28 26 27 27 25 23 20 13 13 11 11 8 7 6 7 7 5 4 7 9 9 9 11 11 11 12 12 11 9 8 7 2 4 8 8 11 14 16 13 12 10
33 29 25 23 21 22 24 23 20 16 13 9 4 6 5 6 7 6 6 4 2 1 3 5 5 5 4 4 5 5 3 1 2 2 7 8 9 12 13 15 13 12 11
28 28 27 22 22 21 19 19 20 20 18 16 9 6 6 5 6 6 5 6 5 5 5 7 3 4 3 2 3 3 3 5 7 7 10 12 13 14 16 16 15 14 12
33 33 34 30 26 23 22 22 21 22 22 19 16 15 8 6 5 7 7 7 8 9 9 10 9 9 9 9 10 10 10 10 13 13 13 15 16 18 21 20 18 17 15
30 28 31 34 29 26 24 23 23 23 23 22 21 20 14 10 10 10 11 13 11 12 13 12 13 15 14 15 17 18 19 17 19 20 19 21 23 22 24 26 23 21 19
38 33 28 33 33 29 27 26 24 22 22 22 22 22 20 18 16 17 14 14 14 15 17 18 18 18 18 20 22 24 23 20 21 24 24 26 29 28 28 30 30 28 26
37 37 34 32 30 30 30 29 27 25 24 24 24 24 23 24 23 21 19 20 22 22 22 24 23 22 20 20 20 22 25 26 26 28 30 31 33 33 33 34 35 34 33
43 39 42 35 29 29 28 30 28 29 29 30 27 27 26 26 26 25 25 26 25 25 23 23 25 23 25 24 24 27 28 33 35 34 35 37 38 39 38 38 40 40 39
41 40 41 39 34 32 32 31 30 30 31 29 29 29 28 28 28 29 30 29 28 28 27 26 27 28 29 30 32 34 35 34 35 36 38 38 40 41 42 42 43 44 44
31 31 31 34 37 38 37 34 33 31 29 30 28 28 30 29 31 33 33 33 31 30 31 32 32 33 34 35 37 39 41 41 42 41 42 42 41 42 42 43 43 44 46
27 26 28 29 32 39 43 41 38 36 35 35 35 32 32 33 35 35 35 36 34 33 34 36 37 37 39 39 43 43 44 45 46 46 45 45 44 44 45 45 46 46 47
34 34 33 35 35 35 38 38 40 43 44 42 41 40 39 39 40 42 40 39 38 39 39 41 40 42 43 44 46 44 45 46 47 49 50 51 52 52 52 50 51 52 51
33 33 38 42 43 42 40 38 39 39 43 47 51 51 47 45 44 45 45 41 39 43 44 42 43 45 46 45 45 46 47 49 50 52 56 60 63 63 63 60 55 53 53
39 37 40 42 45 45 45 45 46 46 47 44 47 50 53 52 49 49 48 44 40 44 45 44 45 44 46 46 46 49 52 54 59 61 62 62 63 59 52 47 42 39 41
44 50 49 44 43 45 50 52 54 57 52 46 42 38 40 45 51 50 50 47 45 47 47 47 49 50 50 48 51 57 60 61 64 64 53 34 42 37 35 36 38 38 48
47 54 59 59 60 62 58 56 58 54 52 48 44 41 38 37 42 55 51 52 50 49 49 50 51 54 55 54 53 56 56 59 59 44 42 57 35 34 38 40 40 48 50
44 45 49 50 50 52 55 57 56 55 52 50 50 45 39 37 34 37 55 48 48 50 49 49 51 49 51 51 53 48 25 29 51 62 44 48 54 53 54 53 49 50 55
54 50 55 59 59 57 52 54 56 56 54 50 47 44 41 40 34 27 30 53 45 46 47 45 45 47 46 49 50 54 56 59 53 46 53 66 62 58 53 54 58 58 58
47 50 54 55 50 52 51 51 49 53 51 45 41 36 33 32 28 24 20 25 38 41 38 36 36 40 40 43 45 48 52 56 58 62 63 64 68 69 65 68 62 58 58
33 33 38 45 47 48 50 50 53 52 50 44 38 29 29 29 31 33 31 27 28 34 37 36 36 37 38 41 43 45 48 51 56 59 63 65 68 74 72 71 69 59 52
Wind_Direction_850mb
163 161 144 132 126 125 121 127 131 119 118 120 118 114 109 103 92 88 101 103 113 93 85 87 97 101 108 102 91 89 86 76 70 58 51 64 74 76 67 64 60 57 57
161 161 147 138 134 133 136 128 130 131 124 123 119 114 110 101 93 85 84 89 97 87 79 78 85 92 96 93 94 95 85 75 66 57 48 52 62 64 64 63 65 60 50
163 161 151 147 142 141 143 139 133 140 141 131 127 125 120 107 105 99 93 102 81 65 73 74 80 87 91 89 97 100 92 78 63 63 48 48 48 52 51 52 47 49 60
167 161 153 150 148 149 152 153 153 147 153 152 139 131 126 117 114 103 101 93 110 97 59 69 78 84 86 85 97 105 108 94 71 54 43 25 25 39 42 41 39 38 37
169 162 157 157 159 159 162 163 172 178 147 136 133 135 136 141 133 127 93 102 98 112 106 86 83 85 90 90 97 108 107 92 77 70 62 22 2 14 27 31 30 32 31
164 158 156 155 161 168 169 179 179 166 142 129 142 149 148 152 155 147 130 95 94 102 109 97 96 90 89 91 95 108 105 98 106 126 69 18 348 4 13 19 21 21 19
156 159 160 161 160 168 175 178 178 172 158 150 134 141 130 142 148 151 160 128 106 100 115 120 113 100 90 86 89 101 115 124 142 156 305 1 356 356 2 4 10 12 9
160 164 167 166 166 173 181 185 188 185 182 170 175 144 122 168 185 183 176 187 177 172 164 182 139 113 105 86 84 95 113 133 307 27 303 332 349 339 342 354 1 0 357
174 178 177 176 178 179 183 189 195 197 199 200 202 227 229 218 200 216 217 207 230 263 276 274 251 224 236 277 301 303 297 294 296 313 300 315 325 333 335 341 342 344 343
187 183 187 185 187 190 192 195 200 203 208 212 217 232 234 231 234 249 269 261 249 257 271 277 272 256 265 272 278 282 280 278 284 287 289 302 310 317 320 325 326 328 326
203 212 200 195 195 198 201 205 212 215 216 222 226 238 253 252 262 264 267 265 270 271 276 280 277 270 273 277 278 280 278 275 279 282 286 291 297 300 307 309 311 313 314
205 202 219 211 202 205 209 214 220 225 229 234 237 243 256 252 257 253 255 262 268 275 284 287 288 285 284 283 279 278 278 280 281 279 285 285 288 292 295 298 299 303 304
215 219 210 212 215 208 215 217 223 229 234 238 239 241 246 247 250 259 263 275 278 281 282 280 281 284 288 289 289 285 283 287 284 283 286 285 288 291 291 292 292 293 295
215 225 229 235 219 221 225 229 224 231 233 238 241 245 243 243 246 250 261 270 273 271 274 279 280 284 286 290 291 292 300 298 295 293 289 286 287 289 290 289 289 288 288
222 225 223 229 226 224 229 236 237 236 239 239 243 243 246 251 253 255 260 263 268 271 278 279 284 287 290 292 294 298 295 294 292 292 291 288 287 287 288 287 286 286 285
216 219 217 222 226 231 237 238 243 246 251 251 252 256 255 255 256 255 257 263 268 274 281 283 285 288 287 288 287 288 294 297 298 297 296 294 291 289 288 289 287 286 285
232 233 230 222 222 228 237 241 244 247 247 253 260 261 265 267 265 265 264 265 270 272 273 274 276 279 283 284 286 289 293 296 296 296 296 294 294 294 295 294 293 290 287
243 242 244 242 235 231 232 239 244 248 251 256 257 259 262 267 270 270 268 270 270 269 271 273 277 279 280 282 286 288 288 291 294 297 297 298 298 297 296 294 293 292 289
243 251 249 250 251 251 250 248 250 250 250 255 258 261 265 266 266 268 270 270 267 267 267 271 273 275 278 282 286 288 289 290 293 295 296 297 297 297 296 296 293 290 288
239 240 245 252 258 260 261 262 263 262 261 256 254 257 262 264 264 266 268 270 268 266 266 266 263 263 269 276 280 285 287 287 288 291 291 298 296 294 295 294 294 294 295
243 241 240 240 244 249 254 256 263 268 270 265 263 262 262 261 261 258 265 268 268 264 264 260 264 265 270 276 280 283 285 287 288 294 303 300 305 299 294 295 299 299 296
258 257 252 249 251 253 252 253 259 265 268 269 266 264 268 263 261 255 252 257 256 258 260 261 263 268 272 277 279 286 289 292 298 300 298 305 300 295 294 294 292 299 299
255 243 238 240 243 249 251 255 255 256 257 258 262 265 268 275 270 257 250 250 253 257 262 260 263 267 272 275 276 274 281 282 295 300 298 296 290 288 298 300 295 294 292
253 247 245 247 254 251 246 250 251 253 257 266 264 268 271 269 266 260 256 245 249 258 265 265 266 267 269 271 276 276 278 282 287 295 293 295 295 297 298 294 295 292 291
253 253 252 253 253 250 248 244 243 246 257 261 258 256 251 258 262 269 250 240 241 257 273 275 272 274 276 276 278 282 285 288 288 288 286 294 297 301 303 303 302 296 293
257 256 256 255 250 244 242 240 238 239 245 251 253 249 234 245 249 255 253 250 243 251 264 269 271 271 274 275 275 278 280 281 285 290 290 293 295 299 302 306 306 303 298